Wind_Speed
6 5 5 5 5 4 3 2 2 2 2 2 1 1 1 1 0 0 1 1 2 2 2 3 4 4 5 5 5 6 6 7 7 8 8 9 9 10 11 11 11 11 12
6 5 5 5 4 4 4 3 2 2 2 1 1 1 1 1 1 1 1 1 2 2 3 4 5 5 6 6 6 6 7 7 8 8 9 10 11 11 12 12 12 13 13
6 6 6 5 4 4 3 3 2 2 2 1 2 2 1 0 1 1 2 2 3 3 4 4 5 5 6 7 7 7 7 8 9 9 10 11 11 12 12 12 12 13 14
6 6 6 5 4 4 4 4 3 3 3 2 2 1 2 1 1 2 3 3 4 5 5 5 6 7 7 8 9 9 9 9 9 10 10 11 11 12 12 13 13 14 14
7 6 5 5 5 4 4 4 3 3 3 2 2 2 2 2 3 3 3 4 5 5 6 7 7 7 8 9 9 9 9 9 10 11 11 11 12 12 13 13 14 14 14
8 7 6 6 5 4 4 4 3 3 2 2 2 2 2 3 3 4 4 5 5 6 7 7 7 8 9 9 10 10 11 11 11 12 12 13 13 13 14 14 15 15 16
8 7 6 6 5 4 4 3 3 3 2 2 3 3 3 3 4 4 5 5 6 7 7 8 8 8 9 9 10 11 12 13 13 13 13 14 14 15 16 16 17 18 18
7 7 6 6 5 4 3 2 2 2 2 3 4 4 5 5 4 4 5 6 7 7 8 8 9 9 9 10 11 12 12 12 13 13 14 15 16 17 17 17 18 18 19
6 6 5 5 5 4 3 3 3 3 2 3 3 4 5 5 5 6 6 7 7 8 9 9 10 10 11 11 12 12 13 13 13 14 15 16 16 17 18 19 19 19 18
6 6 6 5 5 4 4 4 3 3 3 3 4 4 5 6 6 6 7 8 9 9 10 11 11 12 12 12 13 13 13 14 14 14 16 17 17 17 18 18 18 19 19
6 6 6 6 6 5 4 4 4 4 4 4 5 5 6 7 6 6 8 10 10 10 11 12 13 13 13 14 14 15 15 14 14 15 16 16 17 17 17 18 18 19 19
6 6 6 6 6 6 5 6 5 5 5 5 6 6 7 8 8 8 9 11 11 12 12 13 13 14 14 15 15 16 15 15 15 16 16 17 18 18 18 19 19 19 19
6 6 6 7 7 7 7 7 7 7 7 7 8 8 8 9 10 10 10 11 12 13 13 14 14 15 15 15 16 16 16 16 16 17 18 18 18 18 18 19 19 19 19
7 8 8 8 7 8 8 8 9 9 9 9 9 10 9 10 11 11 11 12 13 14 14 15 15 16 16 16 16 17 17 17 18 18 19 19 20 20 20 20 20 19 20
8 9 9 9 9 9 9 9 9 9 10 10 10 10 11 11 12 12 12 13 14 14 15 16 16 17 17 17 17 18 18 18 19 19 20 20 20 20 20 20 20 20 20
9 11 11 11 9 9 10 10 10 10 10 10 11 11 12 12 13 13 13 14 15 15 16 16 17 18 18 18 18 19 19 19 19 20 20 21 21 21 21 20 20 20 20
11 11 11 11 10 10 10 11 11 11 10 11 12 12 13 14 14 14 14 15 15 16 17 17 17 18 18 19 19 20 20 20 20 20 20 21 21 21 21 20 20 21 21
13 13 12 12 11 12 12 12 12 11 12 12 13 13 13 14 15 16 16 16 17 17 17 18 18 18 19 20 20 20 20 20 20 20 21 21 22 22 21 21 21 22 22
13 13 13 14 13 13 13 13 13 13 13 14 14 15 15 16 16 17 17 17 18 18 18 19 19 19 20 20 21 21 21 21 21 21 22 22 22 22 22 23 22 22 23
14 14 14 15 15 14 14 14 14 14 14 15 16 17 17 17 17 18 18 19 20 20 19 20 21 21 21 21 21 21 22 22 22 22 23 23 23 24 23 23 23 23 23
16 16 16 16 16 15 15 16 16 16 16 17 18 18 18 18 19 19 20 20 21 21 21 22 22 22 22 23 22 23 23 23 23 24 24 24 25 25 24 24 24 25 25
17 17 18 18 17 17 17 17 17 18 18 19 19 19 19 20 21 21 21 22 22 23 24 24 24 24 24 24 24 25 25 25 25 25 26 26 26 26 26 26 26 26 26
20 19 20 19 19 19 20 19 20 20 20 20 21 21 21 22 22 23 23 24 24 25 25 26 26 26 26 26 26 26 26 26 27 26 27 27 27 28 27 27 27 27 27
22 22 22 22 21 22 22 22 22 23 23 23 23 23 24 24 24 25 26 26 27 27 28 28 28 28 28 28 27 28 28 28 29 28 28 28 28 28 28 28 28 28 28
25 25 24 24 24 24 25 25 24 24 25 25 25 25 25 26 27 28 29 29 29 30 31 31 31 30 29 29 30 30 30 30 30 29 30 30 30 29 29 30 29 29 29
27 27 26 27 27 26 27 27 27 27 27 28 27 27 27 28 29 29 30 31 31 32 32 32 31 30 31 31 31 32 32 32 31 31 30 31 31 30 30 30 30 30 29
Wind_Direction
91 95 102 104 101 103 114 149 149 135 154 164 160 187 167 147 157 113 170 235 241 242 249 262 267 266 270 273 279 281 281 276 275 274 272 269 268 270 269 270 271 266 266
93 95 97 100 102 105 102 121 139 127 121 132 100 94 131 154 212 227 234 274 278 284 283 283 281 280 275 279 287 290 291 288 285 281 280 274 274 274 274 275 273 267 268
98 88 94 100 100 98 98 106 99 122 109 101 90 76 85 113 257 275 269 283 288 293 304 298 293 287 283 285 289 290 291 289 288 284 284 282 278 277 278 273 273 271 272
81 88 90 95 97 97 93 90 78 83 86 90 86 63 49 27 317 308 305 307 305 296 302 305 298 292 291 291 291 293 293 291 289 287 288 286 284 280 278 275 274 274 275
70 80 90 80 87 90 84 83 82 76 76 67 58 51 25 356 326 320 314 311 311 306 305 304 300 297 295 294 293 295 297 294 290 288 290 288 285 282 280 278 276 277 278
69 75 80 73 76 82 84 81 78 66 58 49 44 33 10 354 337 334 322 315 312 313 315 314 307 303 298 295 296 297 296 294 295 293 290 289 287 284 283 279 278 279 279
68 74 73 69 75 76 78 77 65 46 43 30 23 8 346 338 333 332 331 323 322 324 322 323 320 314 307 302 300 300 296 295 295 296 294 290 287 284 283 279 278 278 278
65 68 64 65 65 63 65 64 46 27 22 18 15 1 347 335 337 337 333 326 324 324 322 322 323 321 312 307 306 307 303 299 299 296 294 294 290 285 284 283 282 281 279
58 61 58 50 45 43 34 32 20 12 10 6 1 352 345 332 325 330 332 328 320 318 319 320 322 319 318 316 312 308 306 305 300 297 297 295 293 289 286 285 283 280 279
45 38 31 25 18 11 6 2 357 358 353 348 348 347 342 332 333 329 330 329 324 320 318 319 320 319 318 318 317 312 308 306 304 301 299 298 296 295 292 292 287 282 281
37 26 18 14 8 358 347 340 338 334 335 335 335 336 329 325 329 331 332 330 324 321 319 318 319 320 319 317 315 313 309 307 307 308 305 303 301 301 298 299 293 287 283
17 12 4 0 357 349 338 328 322 318 318 317 317 320 319 318 318 319 326 327 325 321 318 318 319 317 316 315 313 311 310 309 308 309 308 305 303 303 302 300 298 293 287
357 353 346 343 337 332 327 324 317 312 309 308 310 311 313 313 312 311 317 321 322 321 319 317 317 316 314 313 313 311 310 309 309 309 308 308 306 305 302 301 301 295 291
341 337 335 332 325 321 318 315 313 309 306 305 306 306 307 307 308 310 313 316 318 317 316 315 314 313 313 311 311 311 310 310 308 307 308 308 307 305 303 301 302 299 293
330 328 329 324 321 319 315 315 313 308 305 302 303 304 303 303 304 307 308 311 313 314 314 313 311 311 310 310 310 310 310 309 308 308 309 308 307 305 304 302 301 298 296
323 321 321 318 317 323 321 313 309 309 311 309 305 302 302 305 307 306 307 309 312 313 314 311 311 310 311 311 310 309 310 308 306 308 309 309 308 306 304 302 301 299 298
315 317 323 319 311 312 311 309 307 306 306 308 308 303 301 302 305 305 304 306 309 310 312 312 310 311 310 309 308 308 308 309 309 310 311 310 309 307 306 304 300 299 299
311 313 317 315 310 308 307 304 301 303 306 306 305 303 301 301 302 302 301 303 305 306 307 309 308 307 308 307 306 306 306 309 309 309 310 311 310 309 308 305 303 301 299
308 312 313 311 305 304 304 303 300 300 300 300 301 300 299 300 301 302 300 300 302 303 305 306 305 305 305 305 304 304 304 304 306 306 307 308 309 310 309 306 305 304 302
307 307 306 306 305 305 304 304 303 302 300 300 300 299 296 297 298 300 301 301 301 301 302 304 305 304 303 303 302 303 303 303 304 303 303 305 307 309 308 306 304 304 303
304 303 301 302 304 304 302 301 299 298 298 300 300 302 300 298 298 299 301 301 300 298 300 302 303 302 301 301 301 301 301 301 301 301 302 304 306 306 306 304 302 302 301
299 299 296 298 300 298 298 298 296 295 295 296 297 299 300 297 297 297 298 299 299 298 298 299 300 300 300 301 301 301 301 301 300 299 299 300 302 303 303 304 302 301 300
295 293 293 294 295 294 295 296 296 296 296 295 294 295 297 296 294 295 297 298 298 298 299 299 297 297 297 298 299 299 299 301 301 299 298 299 300 301 302 301 301 301 301
289 290 290 291 292 293 293 293 294 294 294 295 294 295 295 293 294 296 296 297 297 296 296 297 296 295 296 296 297 298 298 298 298 299 298 298 298 299 300 301 301 300 299
286 287 287 288 288 288 290 290 290 292 293 294 294 296 296 296 296 296 295 295 295 295 295 294 293 294 294 295 295 295 296 297 297 297 298 298 298 298 297 299 299 299 298
285 286 286 287 287 287 288 288 289 290 291 294 293 294 295 295 295 295 294 294 294 294 293 293 293 292 292 292 293 293 295 296 295 296 297 298 298 298 297 297 297 297 296
Height
5880 5880 5880 5880 5881 5881 5882 5882 5882 5883 5883 5883 5884 5884 5884 5884 5884 5885 5885 5885 5886 5885 5886 5886 5885 5885 5885 5885 5885 5885 5885 5884 5884 5884 5884 5883 5883 5883 5883 5883 5883 5883 5883
5882 5881 5881 5881 5882 5882 5883 5883 5883 5883 5883 5884 5884 5884 5884 5885 5885 5885 5885 5885 5885 5885 5885 5885 5885 5884 5884 5884 5884 5884 5883 5883 5882 5882 5882 5882 5881 5881 5881 5881 5880 5880 5880
5883 5882 5882 5882 5883 5883 5883 5883 5883 5883 5884 5884 5884 5884 5885 5885 5885 5885 5885 5885 5885 5884 5884 5884 5884 5884 5884 5883 5883 5882 5882 5881 5881 5880 5880 5880 5879 5879 5878 5878 5878 5878 5877
5884 5884 5883 5883 5883 5883 5883 5884 5884 5884 5884 5884 5884 5884 5885 5885 5885 5884 5884 5884 5884 5883 5883 5883 5883 5882 5882 5882 5881 5881 5880 5880 5879 5878 5878 5877 5877 5876 5876 5875 5875 5875 5874
5885 5885 5885 5884 5884 5884 5884 5884 5884 5884 5884 5884 5884 5885 5885 5884 5884 5884 5884 5884 5883 5883 5882 5882 5881 5881 5880 5880 5879 5879 5878 5877 5876 5876 5875 5875 5874 5873 5873 5872 5872 5871 5871
5886 5886 5886 5886 5885 5885 5885 5885 5885 5885 5885 5885 5885 5885 5885 5884 5884 5883 5883 5883 5882 5882 5881 5881 5880 5879 5879 5878 5877 5876 5876 5875 5874 5873 5872 5872 5871 5870 5869 5869 5868 5868 5867
5888 5888 5887 5887 5887 5886 5886 5886 5886 5886 5885 5885 5885 5884 5884 5884 5883 5883 5882 5882 5881 5881 5880 5879 5878 5877 5876 5876 5875 5874 5873 5873 5872 5871 5870 5869 5868 5867 5866 5865 5864 5864 5863
5890 5889 5889 5888 5888 5887 5887 5887 5887 5886 5886 5885 5885 5884 5884 5884 5883 5882 5881 5881 5880 5879 5879 5878 5877 5876 5875 5874 5873 5872 5871 5870 5869 5868 5867 5865 5864 5863 5862 5861 5860 5859 5858
5891 5890 5890 5889 5888 5888 5887 5887 5886 5886 5886 5885 5885 5884 5883 5883 5882 5881 5881 5880 5879 5878 5877 5876 5875 5874 5873 5872 5871 5869 5868 5867 5866 5864 5863 5862 5861 5859 5858 5857 5855 5854 5854
5892 5891 5890 5889 5889 5888 5887 5887 5886 5886 5885 5885 5884 5884 5883 5882 5882 5881 5880 5879 5878 5876 5875 5874 5873 5872 5871 5870 5868 5867 5865 5864 5862 5861 5860 5858 5857 5855 5853 5852 5851 5850 5849
5892 5891 5891 5890 5889 5888 5887 5886 5886 5885 5885 5884 5883 5883 5882 5881 5880 5880 5879 5878 5876 5875 5873 5872 5871 5869 5868 5867 5866 5864 5862 5861 5859 5858 5856 5855 5853 5851 5849 5847 5846 5844 5843
5893 5892 5891 5890 5889 5887 5887 5886 5885 5884 5884 5883 5882 5882 5881 5880 5879 5878 5877 5876 5874 5873 5872 5870 5869 5867 5866 5864 5863 5861 5860 5858 5856 5855 5853 5851 5849 5847 5845 5843 5841 5839 5838
5892 5891 5890 5889 5888 5887 5886 5885 5884 5883 5882 5882 5881 5880 5879 5879 5878 5876 5875 5874 5873 5871 5870 5868 5866 5865 5863 5862 5860 5858 5857 5855 5853 5851 5849 5847 5844 5842 5840 5838 5836 5834 5833
5891 5890 5889 5888 5887 5885 5884 5883 5882 5881 5880 5880 5879 5878 5877 5876 5875 5874 5873 5872 5870 5869 5867 5866 5864 5862 5860 5858 5857 5855 5853 5852 5850 5847 5845 5843 5840 5838 5836 5834 5831 5829 5828
5890 5889 5887 5886 5885 5883 5882 5881 5879 5879 5878 5877 5877 5876 5875 5874 5873 5872 5871 5869 5868 5867 5865 5863 5861 5859 5857 5855 5853 5852 5850 5848 5846 5844 5841 5839 5836 5834 5831 5829 5827 5825 5823
5888 5887 5885 5884 5882 5881 5880 5878 5877 5876 5875 5874 5874 5873 5872 5871 5870 5869 5867 5866 5865 5863 5862 5860 5858 5856 5854 5852 5850 5848 5846 5844 5842 5839 5837 5835 5832 5829 5827 5824 5822 5820 5818
5886 5884 5883 5881 5879 5878 5877 5876 5874 5873 5873 5872 5871 5870 5869 5868 5867 5865 5864 5863 5861 5860 5858 5856 5854 5852 5850 5848 5846 5844 5842 5839 5837 5835 5832 5830 5827 5825 5822 5820 5817 5815 5813
5883 5882 5880 5878 5877 5875 5874 5872 5871 5870 5869 5869 5868 5867 5866 5865 5863 5862 5861 5859 5858 5856 5854 5852 5850 5848 5846 5844 5842 5839 5837 5835 5833 5830 5828 5825 5823 5820 5817 5815 5812 5810 5808
5881 5879 5877 5876 5874 5872 5870 5869 5868 5867 5866 5865 5864 5863 5862 5861 5859 5858 5856 5855 5853 5851 5849 5848 5846 5844 5841 5839 5837 5835 5832 5830 5828 5826 5823 5820 5818 5815 5812 5810 5807 5804 5802
5878 5876 5875 5873 5870 5869 5867 5866 5865 5864 5863 5861 5860 5859 5858 5856 5855 5853 5852 5850 5848 5846 5845 5843 5841 5839 5836 5834 5832 5829 5827 5825 5823 5820 5818 5815 5813 5810 5807 5804 5802 5799 5796
5875 5873 5871 5869 5867 5866 5864 5862 5861 5860 5859 5858 5856 5854 5853 5852 5850 5848 5847 5845 5843 5841 5839 5838 5836 5833 5831 5828 5826 5824 5822 5819 5817 5815 5812 5810 5807 5804 5801 5798 5796 5793 5790
5870 5869 5867 5865 5863 5862 5860 5858 5857 5856 5854 5853 5851 5850 5848 5847 5845 5843 5841 5839 5837 5835 5834 5832 5830 5828 5825 5823 5820 5818 5816 5814 5811 5809 5806 5804 5801 5798 5795 5792 5789 5787 5784
5865 5864 5862 5860 5859 5857 5855 5854 5852 5850 5849 5847 5846 5844 5843 5841 5839 5837 5835 5833 5831 5829 5827 5825 5823 5821 5819 5816 5814 5811 5809 5807 5805 5802 5800 5797 5794 5791 5788 5785 5783 5780 5777
5860 5859 5857 5855 5853 5852 5850 5848 5846 5845 5843 5842 5840 5838 5837 5835 5833 5831 5829 5827 5825 5822 5820 5818 5816 5814 5811 5809 5806 5804 5802 5800 5798 5795 5792 5790 5787 5784 5781 5778 5775 5773 5770
5854 5853 5851 5849 5847 5846 5844 5842 5840 5838 5837 5835 5833 5831 5830 5828 5826 5824 5822 5820 5817 5815 5812 5810 5808 5806 5803 5801 5799 5797 5795 5793 5790 5788 5785 5782 5779 5776 5774 5770 5767 5765 5762
5847 5846 5844 5842 5840 5838 5836 5835 5833 5832 5830 5829 5826 5824 5822 5820 5818 5815 5813 5811 5809 5807 5804 5801 5800 5798 5795 5793 5791 5788 5787 5784 5782 5780 5777 5774 5771 5768 5765 5763 5759 5757 5754